SCP
0 0 0 0 0 0 0 0 0 0 0 0 0 0 0 0 0 0 0 0 0 0 0 0 0 0 0 0 0 0 0 0 0 0 0 0 0 0 0 0 0 0 0
0 0 0 0 0 0 0 0 0 0 0 0 0 0 0 0 0 0 0 0 0 0 0 0 0 0 0 0 0 0 0 0 0 0 0 0 0 0 0 0 0 0 0
0 0 0 0 0 0 0 0 0 0 0 0 0 0 0 0 0 0 0 0 0 0 0 0 0 0 0 0 0 0 0 0 0 0 0 0 0 0 0 0 0 0 0
0 0 0 0 0 0 0 0 0 0 0 0 0 0 0 0 0 0 0 0 0 0 0 0 0 0 0 0 0 0 0 0 0 0 0 0 0 0 0 0 0 0 0
0 0 0 0 0 0 0 0 0 0 0 0 0 0 0 0 0 0 0 0 0 0 0 0 0 0 0 0 0 0 0 0 0 0 0 0 0 0 0 0 0 0 0
0 0 0 0 0 0 0 0 0 0 0 0 0 0 0 0 0 0 0 0 0 0 0 0 0 0 0 0 0 0 0 0 0 0 0 0 0 0 0 0 0 0 0
0 0 0 0 0 0 0 0 0 0 0 0 0 0 0 0 0 0 0 0 0 0 0 0 0 0 0 0 0 0 0 0 0 0 0 0 0 0 0 0 0 0 0
0 0 0 0 0 0 0 0 0 0 0 0 0 0 0 0 0 0 0 0 0 0 0 0 0 0 0 0 0 0 0 0 0 0 0 0 0 0 0 0 0 0 0
0 0 0 0 0 0 0 0 0 0 0 0 0 0 0 0 0 0 0 0 0 0 0 0 0 0 0 0 0 0 0 0 0 0 0 0 0 0 0 0 0 0 0
0 0 0 0 0 0 0 0 0 0 0 0 0 0 0 0 0 0 0 0 0 0 0 0 0 0 0 0 0 0 0 0 0 0 0 0 0 0 0 0 0 0 0
0 0 0 0 0 0 0 0 0 0 0 0 0 0 0 0 0 0 0 0 0 0 0 0 0 0 0 0 0 0 0 0 0 0 0 0 0 0 0 0 0 0 0
0 0 0 0 0 0 0 0 0 0 0 0 0 0 0 0 0 0 0 0 0 0 0 0 0 0 0 0 0 0 0 0 0 0 0 0 0 0 0 0 0 0 0
0 0 0 0 0 0 0 0 0 0 0 0 0 0 0 0 0 0 0 0 0 0 0 0 0 0 0 0 0 0 0 0 0 0 0 0 0 0 0 0 0 0 0
0 0 0 0 0 0 0 0 0 0 0 0 0 0 0 0 0 0 0 0 0 0 0 0 0 0 0 0 0 0 0 0 0 0 0 0 0 0 0 0 0 0 0
0 0 0 0 0 0 0 0 0 0 0 0 0 0 0 0 0 0 0 0 0 0 0 0 0 0 0 0 0 0 0 0 0 0 0 0 0 0 0 0 0 0 0
0 0 0 0 0 0 0 0 0 0 0 0 0 0 0 0 0 0 0 0 0 0 0 0 0 0 0 0 0 0 0 0 0 0 0 0 0 0 0 0 0 0 0
0 0 0 0 0 0 0 0 0 0 0 0 0 0 0 0 0 0 0 0 0 0 0 0 0 0 0 0 0 0 0 0 0 0 0 0 0 0 0 0 0 0 0
0 0 0 0 0 0 0 0 0 0 0 0 0 0 0 0 0 0 0 0 0 0 0 0 0 0 0 0 0 0 0 0 0 0 0 0 0 0 0 0 0 0 0
0 0 0 0 0 0 0 0 0 0 0 0 0 0 0 0 0 0 0 0 0 0 0 0 0 0 0 0 0 0 0 0 0 0 0 0 0 0 0 0 0 0 0
0 0 0 0 0 0 0 0 0 0 0 0 0 0 0 0 0 0 0 0 0 0 0 0 0 0 0 0 0 0 0 0 0 0 0 0 0 0 0 0 0 0 0
0 0 0 0 0 0 0 0 0 0 0 0 0 0 0 0 0 0 0 0 0 0 0 0 0 0 0 0 0 0 0 0 0 0 0 0 0 0 0 0 0 0 0
0 0 0 0 0 0 0 0 0 0 0 0 0 0 0 0 0 0 0 0 0 0 0 0 0 0 0 0 0 0 0 0 0 0 0 0 0 0 0 0 0 0 0
0 0 0 0 0 0 0 0 0 0 0 0 0 0 0 0 0 0 0 0 0 0 0 0 0 0 0 0 0 0 0 0 0 0 0 0 0 0 0 0 0 0 0
0 0 0 0 0 0 0 0 0 0 0 0 0 0 0 0 0 0 0 0 0 0 0 0 0 0 0 0 0 0 0 0 0 0 0 0 0 0 0 0 0 0 0
0 0 0 0 0 0 0 0 0 0 0 0 0 0 0 0 0 0 0 0 0 0 0 0 0 0 0 0 0 0 0 0 0 0 0 0 0 0 0 0 0 0 0
0 0 0 0 0 0 0 0 0 0 0 0 0 0 0 0 0 0 0 0 0 0 0 0 0 0 0 0 0 0 0 0 0 0 0 0 0 0 0 0 0 0 0
Wind_Speed_500mb
14 16 18 23 25 24 22 21 20 22 26 24 22 20 19 17 18 28 30 27 23 19 21 20 19 19 18 6 3 11 17 16 28 29 28 26 24 24 22 22 21 21 23
26 24 25 26 27 26 24 25 27 29 28 23 17 16 16 14 16 20 22 21 20 21 20 21 28 26 22 12 21 28 33 40 35 31 27 23 21 21 21 20 21 22 22
26 29 31 32 31 30 27 22 24 21 20 17 19 20 19 13 21 22 25 23 20 20 23 22 27 30 28 23 23 29 31 35 39 25 25 22 21 22 21 21 22 23 22
27 27 29 29 31 32 30 28 24 21 20 21 21 22 25 26 27 24 17 17 25 23 18 21 25 25 21 16 16 26 35 38 21 23 23 20 21 23 23 23 24 23 24
29 29 30 25 24 21 14 13 17 17 19 17 12 12 18 21 21 20 19 16 20 23 24 15 21 22 22 25 29 34 28 22 21 21 20 22 23 22 22 26 27 27 25
25 21 16 15 11 13 14 15 16 15 19 13 10 13 11 15 13 12 17 21 22 20 20 19 19 17 20 26 27 23 21 21 22 20 20 21 23 22 23 25 28 28 27
10 7 8 9 13 14 16 17 16 13 14 12 13 9 9 9 15 21 16 12 14 12 13 19 20 21 21 20 19 17 19 19 19 19 18 18 18 22 23 25 26 27 28
2 4 7 10 15 19 21 21 19 15 20 15 13 21 16 9 9 15 14 13 14 16 17 17 18 18 17 17 17 17 18 18 19 19 19 19 18 20 24 26 26 28 29
3 7 11 14 17 19 20 19 18 15 14 16 11 16 14 14 18 12 18 16 18 21 18 17 17 18 18 18 17 17 18 20 19 19 19 19 19 19 23 28 28 28 29
7 10 13 15 17 19 21 21 21 19 18 17 18 16 21 18 20 14 19 22 18 20 18 17 19 21 19 17 17 17 18 20 21 22 23 23 24 26 28 29 29 30 30
8 10 13 15 17 19 20 21 20 19 18 17 16 17 19 22 25 25 27 27 23 21 22 19 22 20 16 15 16 17 18 21 22 22 23 26 28 29 30 30 31 31 32
7 11 14 17 18 18 18 19 19 19 18 17 17 16 16 19 21 22 22 24 27 23 23 21 18 15 14 15 18 19 18 20 22 24 25 27 31 33 33 33 33 33 33
8 13 16 18 20 20 21 21 21 21 21 21 21 21 21 22 21 20 21 22 24 27 27 22 18 13 15 18 17 18 19 21 22 24 24 27 31 32 33 34 35 33 36
11 13 15 17 18 19 20 21 22 22 22 23 24 23 23 23 23 23 23 26 25 25 29 27 21 18 18 19 20 20 21 21 22 24 27 31 33 34 37 39 37 36 43
11 14 16 18 20 21 22 23 23 23 23 24 23 23 23 24 23 22 21 23 27 26 32 27 24 19 18 17 19 20 20 20 21 25 27 31 32 35 39 39 37 42 45
12 15 18 20 21 23 24 25 25 25 25 24 23 23 22 22 20 20 20 23 25 28 26 25 23 21 17 18 18 20 22 23 24 26 29 30 32 36 37 38 43 46 49
14 18 22 24 25 26 27 27 26 25 25 24 22 21 21 20 21 22 22 22 21 22 25 19 20 16 15 15 18 20 21 22 24 25 26 27 33 34 35 41 46 49 53
19 23 25 26 27 28 28 28 27 27 27 25 24 23 21 20 20 20 19 17 15 14 17 17 16 15 14 16 19 22 23 23 23 20 22 27 30 32 35 40 44 49 51
22 26 27 29 29 30 31 31 29 27 26 26 25 24 25 24 23 21 20 18 17 14 12 14 13 14 16 18 19 22 23 23 23 21 23 27 30 31 37 40 44 46 45
27 31 32 33 33 32 32 31 30 28 27 27 24 24 24 23 22 19 17 15 13 10 12 13 11 14 18 24 27 28 26 27 27 25 28 32 30 32 37 42 45 46 44
32 35 35 36 35 34 33 32 31 29 28 27 25 24 24 23 21 18 15 14 13 11 10 11 14 15 17 25 34 38 37 35 31 30 29 34 32 36 41 44 46 47 48
35 36 36 36 34 32 32 32 31 30 29 28 25 24 23 19 15 14 15 14 14 13 11 12 13 19 21 25 31 38 41 43 39 36 38 35 34 40 46 49 47 49 50
36 36 35 34 33 32 33 34 33 33 33 30 28 25 18 14 14 16 16 15 14 13 12 14 18 21 24 27 32 33 35 39 42 42 45 40 42 44 49 49 45 52 55
35 36 35 37 35 34 34 34 34 33 33 32 29 21 18 14 14 17 17 15 14 14 13 16 19 23 27 29 30 35 38 39 40 42 43 43 56 57 54 49 47 57 60
39 39 39 40 38 36 34 34 34 32 32 31 32 25 20 16 15 22 19 16 15 15 16 18 22 25 29 32 34 35 36 40 42 42 37 51 61 70 64 50 64 60 57
43 44 43 42 41 37 36 32 35 34 31 33 30 29 23 17 22 22 19 17 17 17 19 21 23 26 29 32 35 37 39 40 43 37 39 57 54 64 55 55 76 75 69
Wind_Direction_500mb
282 282 291 299 305 306 306 299 310 311 313 316 323 325 324 308 287 281 291 298 293 295 310 322 335 341 11 56 254 302 317 317 340 333 330 326 322 320 322 323 322 317 310
270 279 280 283 289 293 296 292 296 304 310 318 326 335 329 304 303 298 293 293 289 293 294 297 301 298 311 305 304 297 300 317 327 331 331 326 322 322 325 324 319 319 320
271 271 273 286 287 284 287 293 291 296 308 306 311 309 313 291 297 292 285 277 278 288 284 290 298 297 300 294 304 302 318 320 323 329 328 333 352 358 7 13 12 11 3
278 277 279 285 289 291 290 291 287 293 295 303 306 291 286 284 290 291 276 279 282 291 265 291 296 294 290 299 314 312 308 309 339 336 336 3 23 32 33 28 22 13 9
291 290 281 276 278 290 287 283 288 291 297 304 298 291 287 291 291 294 292 280 292 286 279 286 292 294 288 284 296 298 307 344 355 0 16 32 35 35 28 23 21 15 5
296 293 297 304 311 314 314 310 305 306 297 311 304 300 250 271 278 279 288 285 277 278 280 290 289 281 286 289 293 304 319 336 344 356 16 27 31 30 23 16 13 10 2
300 325 350 335 312 315 314 313 309 306 290 289 293 188 186 213 268 285 299 286 295 263 281 278 289 285 288 295 305 312 318 329 333 339 346 5 13 21 12 10 7 5 3
1 341 327 322 323 327 328 332 333 307 292 292 225 215 222 229 257 271 286 293 279 281 278 281 286 291 295 300 306 314 316 320 328 332 333 339 355 11 7 2 360 0 358
344 341 340 342 342 341 336 332 329 322 300 290 264 226 211 228 209 231 267 280 293 300 295 294 295 296 299 304 309 310 312 313 317 322 327 333 340 349 349 350 350 355 355
343 349 351 349 346 341 335 331 329 323 313 298 288 263 244 217 214 211 244 262 273 291 291 297 300 300 304 305 307 309 310 311 319 325 330 330 328 329 334 342 351 355 351
350 354 355 352 346 342 337 333 328 325 317 308 297 281 262 247 232 225 226 237 246 267 283 294 305 307 302 302 309 314 318 320 324 327 330 326 319 320 326 338 348 351 349
358 359 353 349 343 337 332 330 328 323 317 307 296 285 268 255 251 235 236 229 241 254 268 281 293 301 304 314 318 318 319 317 322 322 324 322 317 320 324 326 331 336 340
358 357 351 345 341 338 334 330 325 320 316 311 305 297 287 278 270 257 244 228 232 244 253 269 284 294 308 311 311 314 321 318 321 324 327 322 320 327 326 323 325 336 337
359 354 349 343 337 335 332 330 328 324 316 310 305 299 290 282 275 267 254 239 230 233 240 250 262 274 295 308 311 315 319 323 324 328 329 323 327 328 324 324 328 335 328
344 342 338 335 335 336 333 329 324 319 314 307 301 295 290 286 281 276 265 253 241 231 231 240 251 263 295 305 312 317 322 324 328 326 324 322 325 323 324 329 329 328 329
329 328 332 333 330 328 326 322 319 314 311 305 299 292 287 283 279 274 271 269 261 251 234 233 241 266 295 311 319 326 332 333 333 331 321 329 329 328 331 326 327 331 329
326 325 324 323 321 319 315 313 309 305 302 298 293 289 286 284 285 285 282 274 266 254 247 227 235 268 297 310 320 324 330 334 335 328 326 334 331 334 332 334 333 330 330
317 316 313 310 310 307 304 303 302 301 298 295 289 283 280 283 285 285 282 277 268 254 249 249 258 280 307 317 324 328 334 341 338 333 338 335 340 341 338 333 332 330 330
305 305 307 307 306 304 303 304 302 300 297 292 288 289 290 290 285 274 261 254 270 289 282 272 275 298 314 320 323 330 339 346 346 346 352 344 346 341 339 336 334 330 328
305 307 308 305 303 302 300 301 299 297 295 291 289 288 287 287 281 275 273 274 268 259 274 284 295 311 325 327 329 330 341 352 351 344 356 344 341 343 342 341 338 336 336
300 300 299 299 299 298 299 299 296 292 287 287 285 283 282 284 282 283 286 287 283 278 277 295 308 314 328 330 337 343 344 345 344 336 351 340 343 344 344 345 344 341 334
293 293 294 293 295 297 295 294 289 285 282 279 280 285 289 290 285 292 280 278 283 292 300 300 313 318 333 340 341 338 338 340 348 337 339 342 343 348 348 349 344 339 332
293 291 290 289 293 290 289 288 283 279 277 279 282 283 278 276 278 275 275 275 279 286 297 314 324 324 332 340 340 332 332 337 338 335 333 339 340 347 349 346 342 340 332
289 287 287 287 286 285 284 281 280 277 278 280 281 280 273 260 266 271 271 273 283 292 310 319 321 326 334 333 331 331 333 334 331 332 335 334 338 342 346 344 345 343 336
286 287 282 280 281 281 279 276 274 270 270 276 276 271 262 253 259 265 268 274 281 294 306 313 319 328 329 326 331 330 325 325 333 337 332 337 337 334 341 345 343 341 336
282 279 276 276 277 275 276 275 272 263 267 270 267 266 249 240 257 260 268 278 283 291 303 313 320 324 323 326 328 326 326 330 334 340 329 330 337 342 336 336 337 340 337
Wind_Speed_850mb
14 16 18 23 25 24 22 21 20 22 26 24 22 20 19 17 18 28 30 27 23 19 21 20 19 19 18 6 3 11 17 16 28 29 28 26 24 24 22 22 21 21 23
26 24 25 26 27 26 24 25 27 29 28 23 17 16 16 14 16 20 22 21 20 21 20 21 28 26 22 12 21 28 33 40 35 31 27 23 21 21 21 20 21 22 22
26 29 31 32 31 30 27 22 24 21 20 17 19 20 19 13 21 22 25 23 20 20 23 22 27 30 28 23 23 29 31 35 39 25 25 22 21 22 21 21 22 23 22
27 27 29 29 31 32 30 28 24 21 20 21 21 22 25 26 27 24 17 17 25 23 18 21 25 25 21 16 16 26 35 38 21 23 23 20 21 23 23 23 24 23 24
29 29 30 25 24 21 14 13 17 17 19 17 12 12 18 21 21 20 19 16 20 23 24 15 21 22 22 25 29 34 28 22 21 21 20 22 23 22 22 26 27 27 25
25 21 16 15 11 13 14 15 16 15 19 13 10 13 11 15 13 12 17 21 22 20 20 19 19 17 20 26 27 23 21 21 22 20 20 21 23 22 23 25 28 28 27
10 7 8 9 13 14 16 17 16 13 14 12 13 9 9 9 15 21 16 12 14 12 13 19 20 21 21 20 19 17 19 19 19 19 18 18 18 22 23 25 26 27 28
2 4 7 10 15 19 21 21 19 15 20 15 13 21 16 9 9 15 14 13 14 16 17 17 18 18 17 17 17 17 18 18 19 19 19 19 18 20 24 26 26 28 29
3 7 11 14 17 19 20 19 18 15 14 16 11 16 14 14 18 12 18 16 18 21 18 17 17 18 18 18 17 17 18 20 19 19 19 19 19 19 23 28 28 28 29
7 10 13 15 17 19 21 21 21 19 18 17 18 16 21 18 20 14 19 22 18 20 18 17 19 21 19 17 17 17 18 20 21 22 23 23 24 26 28 29 29 30 30
8 10 13 15 17 19 20 21 20 19 18 17 16 17 19 22 25 25 27 27 23 21 22 19 22 20 16 15 16 17 18 21 22 22 23 26 28 29 30 30 31 31 32
7 11 14 17 18 18 18 19 19 19 18 17 17 16 16 19 21 22 22 24 27 23 23 21 18 15 14 15 18 19 18 20 22 24 25 27 31 33 33 33 33 33 33
8 13 16 18 20 20 21 21 21 21 21 21 21 21 21 22 21 20 21 22 24 27 27 22 18 13 15 18 17 18 19 21 22 24 24 27 31 32 33 34 35 33 36
11 13 15 17 18 19 20 21 22 22 22 23 24 23 23 23 23 23 23 26 25 25 29 27 21 18 18 19 20 20 21 21 22 24 27 31 33 34 37 39 37 36 43
11 14 16 18 20 21 22 23 23 23 23 24 23 23 23 24 23 22 21 23 27 26 32 27 24 19 18 17 19 20 20 20 21 25 27 31 32 35 39 39 37 42 45
12 15 18 20 21 23 24 25 25 25 25 24 23 23 22 22 20 20 20 23 25 28 26 25 23 21 17 18 18 20 22 23 24 26 29 30 32 36 37 38 43 46 49
14 18 22 24 25 26 27 27 26 25 25 24 22 21 21 20 21 22 22 22 21 22 25 19 20 16 15 15 18 20 21 22 24 25 26 27 33 34 35 41 46 49 53
19 23 25 26 27 28 28 28 27 27 27 25 24 23 21 20 20 20 19 17 15 14 17 17 16 15 14 16 19 22 23 23 23 20 22 27 30 32 35 40 44 49 51
22 26 27 29 29 30 31 31 29 27 26 26 25 24 25 24 23 21 20 18 17 14 12 14 13 14 16 18 19 22 23 23 23 21 23 27 30 31 37 40 44 46 45
27 31 32 33 33 32 32 31 30 28 27 27 24 24 24 23 22 19 17 15 13 10 12 13 11 14 18 24 27 28 26 27 27 25 28 32 30 32 37 42 45 46 44
32 35 35 36 35 34 33 32 31 29 28 27 25 24 24 23 21 18 15 14 13 11 10 11 14 15 17 25 34 38 37 35 31 30 29 34 32 36 41 44 46 47 48
35 36 36 36 34 32 32 32 31 30 29 28 25 24 23 19 15 14 15 14 14 13 11 12 13 19 21 25 31 38 41 43 39 36 38 35 34 40 46 49 47 49 50
36 36 35 34 33 32 33 34 33 33 33 30 28 25 18 14 14 16 16 15 14 13 12 14 18 21 24 27 32 33 35 39 42 42 45 40 42 44 49 49 45 52 55
35 36 35 37 35 34 34 34 34 33 33 32 29 21 18 14 14 17 17 15 14 14 13 16 19 23 27 29 30 35 38 39 40 42 43 43 56 57 54 49 47 57 60
39 39 39 40 38 36 34 34 34 32 32 31 32 25 20 16 15 22 19 16 15 15 16 18 22 25 29 32 34 35 36 40 42 42 37 51 61 70 64 50 64 60 57
43 44 43 42 41 37 36 32 35 34 31 33 30 29 23 17 22 22 19 17 17 17 19 21 23 26 29 32 35 37 39 40 43 37 39 57 54 64 55 55 76 75 69
Wind_Direction_850mb
282 282 291 299 305 306 306 299 310 311 313 316 323 325 324 308 287 281 291 298 293 295 310 322 335 341 11 56 254 302 317 317 340 333 330 326 322 320 322 323 322 317 310
270 279 280 283 289 293 296 292 296 304 310 318 326 335 329 304 303 298 293 293 289 293 294 297 301 298 311 305 304 297 300 317 327 331 331 326 322 322 325 324 319 319 320
271 271 273 286 287 284 287 293 291 296 308 306 311 309 313 291 297 292 285 277 278 288 284 290 298 297 300 294 304 302 318 320 323 329 328 333 352 358 7 13 12 11 3
278 277 279 285 289 291 290 291 287 293 295 303 306 291 286 284 290 291 276 279 282 291 265 291 296 294 290 299 314 312 308 309 339 336 336 3 23 32 33 28 22 13 9
291 290 281 276 278 290 287 283 288 291 297 304 298 291 287 291 291 294 292 280 292 286 279 286 292 294 288 284 296 298 307 344 355 0 16 32 35 35 28 23 21 15 5
296 293 297 304 311 314 314 310 305 306 297 311 304 300 250 271 278 279 288 285 277 278 280 290 289 281 286 289 293 304 319 336 344 356 16 27 31 30 23 16 13 10 2
300 325 350 335 312 315 314 313 309 306 290 289 293 188 186 213 268 285 299 286 295 263 281 278 289 285 288 295 305 312 318 329 333 339 346 5 13 21 12 10 7 5 3
1 341 327 322 323 327 328 332 333 307 292 292 225 215 222 229 257 271 286 293 279 281 278 281 286 291 295 300 306 314 316 320 328 332 333 339 355 11 7 2 360 0 358
344 341 340 342 342 341 336 332 329 322 300 290 264 226 211 228 209 231 267 280 293 300 295 294 295 296 299 304 309 310 312 313 317 322 327 333 340 349 349 350 350 355 355
343 349 351 349 346 341 335 331 329 323 313 298 288 263 244 217 214 211 244 262 273 291 291 297 300 300 304 305 307 309 310 311 319 325 330 330 328 329 334 342 351 355 351
350 354 355 352 346 342 337 333 328 325 317 308 297 281 262 247 232 225 226 237 246 267 283 294 305 307 302 302 309 314 318 320 324 327 330 326 319 320 326 338 348 351 349
358 359 353 349 343 337 332 330 328 323 317 307 296 285 268 255 251 235 236 229 241 254 268 281 293 301 304 314 318 318 319 317 322 322 324 322 317 320 324 326 331 336 340
358 357 351 345 341 338 334 330 325 320 316 311 305 297 287 278 270 257 244 228 232 244 253 269 284 294 308 311 311 314 321 318 321 324 327 322 320 327 326 323 325 336 337
359 354 349 343 337 335 332 330 328 324 316 310 305 299 290 282 275 267 254 239 230 233 240 250 262 274 295 308 311 315 319 323 324 328 329 323 327 328 324 324 328 335 328
344 342 338 335 335 336 333 329 324 319 314 307 301 295 290 286 281 276 265 253 241 231 231 240 251 263 295 305 312 317 322 324 328 326 324 322 325 323 324 329 329 328 329
329 328 332 333 330 328 326 322 319 314 311 305 299 292 287 283 279 274 271 269 261 251 234 233 241 266 295 311 319 326 332 333 333 331 321 329 329 328 331 326 327 331 329
326 325 324 323 321 319 315 313 309 305 302 298 293 289 286 284 285 285 282 274 266 254 247 227 235 268 297 310 320 324 330 334 335 328 326 334 331 334 332 334 333 330 330
317 316 313 310 310 307 304 303 302 301 298 295 289 283 280 283 285 285 282 277 268 254 249 249 258 280 307 317 324 328 334 341 338 333 338 335 340 341 338 333 332 330 330
305 305 307 307 306 304 303 304 302 300 297 292 288 289 290 290 285 274 261 254 270 289 282 272 275 298 314 320 323 330 339 346 346 346 352 344 346 341 339 336 334 330 328
305 307 308 305 303 302 300 301 299 297 295 291 289 288 287 287 281 275 273 274 268 259 274 284 295 311 325 327 329 330 341 352 351 344 356 344 341 343 342 341 338 336 336
300 300 299 299 299 298 299 299 296 292 287 287 285 283 282 284 282 283 286 287 283 278 277 295 308 314 328 330 337 343 344 345 344 336 351 340 343 344 344 345 344 341 334
293 293 294 293 295 297 295 294 289 285 282 279 280 285 289 290 285 292 280 278 283 292 300 300 313 318 333 340 341 338 338 340 348 337 339 342 343 348 348 349 344 339 332
293 291 290 289 293 290 289 288 283 279 277 279 282 283 278 276 278 275 275 275 279 286 297 314 324 324 332 340 340 332 332 337 338 335 333 339 340 347 349 346 342 340 332
289 287 287 287 286 285 284 281 280 277 278 280 281 280 273 260 266 271 271 273 283 292 310 319 321 326 334 333 331 331 333 334 331 332 335 334 338 342 346 344 345 343 336
286 287 282 280 281 281 279 276 274 270 270 276 276 271 262 253 259 265 268 274 281 294 306 313 319 328 329 326 331 330 325 325 333 337 332 337 337 334 341 345 343 341 336
282 279 276 276 277 275 276 275 272 263 267 270 267 266 249 240 257 260 268 278 283 291 303 313 320 324 323 326 328 326 326 330 334 340 329 330 337 342 336 336 337 340 337